Wind_Speed
15 16 17 17 17 18 19 21 21 20 20 18 20 24 24 23 25 27 27 25 25 24 22 22 23 23 25 27 27 26 26 25 24 22 22 24 23 22 21 20 19 19
14 16 17 18 20 22 23 25 24 20 18 16 16 20 24 24 24 24 22 23 24 24 23 24 25 24 24 26 27 26 25 24 24 22 22 23 22 21 21 19 19 18
15 17 17 20 23 24 24 25 24 18 15 15 14 17 23 25 25 23 21 22 24 22 22 24 25 24 24 24 24 24 24 24 24 23 22 22 21 20 20 18 18 18
16 16 16 20 22 22 23 24 22 19 16 15 14 16 21 24 25 25 22 23 25 23 23 23 23 24 24 23 22 24 25 25 25 23 21 21 21 20 18 17 17 17
17 17 16 20 22 21 22 23 20 19 18 15 15 17 21 23 25 24 22 24 26 25 24 22 23 25 24 22 24 25 25 26 25 23 21 21 20 19 17 16 15 16
16 17 18 22 24 21 21 21 20 19 19 19 19 20 21 22 23 23 23 23 24 24 23 22 23 25 24 24 25 24 24 27 26 22 21 20 19 18 17 15 15 15
14 15 17 22 25 23 21 20 19 20 21 22 22 21 20 20 21 23 22 22 22 22 21 21 23 25 24 25 25 22 23 27 26 23 21 20 18 18 17 15 15 15
14 17 20 21 22 23 22 21 21 22 23 23 22 22 20 20 21 22 21 20 21 21 21 21 23 25 26 27 24 20 22 26 24 20 19 18 18 18 17 16 15 15
13 15 19 21 22 22 22 22 22 23 23 23 23 23 22 21 22 22 21 21 21 22 24 23 23 24 26 25 23 20 22 24 20 17 17 17 18 18 17 16 16 15
15 13 15 19 21 21 21 22 23 24 24 24 24 25 24 22 22 22 21 22 23 24 25 25 23 22 23 23 21 20 22 23 19 17 17 17 17 17 17 16 16 15
18 17 16 16 17 17 19 21 23 24 23 24 25 26 25 23 23 23 22 23 25 26 26 25 22 22 22 20 19 20 23 22 18 17 17 17 17 16 16 16 15 15
20 19 19 18 17 16 17 19 21 23 24 26 27 27 26 25 26 26 24 25 26 26 26 24 22 22 22 19 18 22 22 19 17 17 17 17 16 15 15 15 15 14
20 20 20 19 18 17 17 18 20 23 26 28 28 27 27 27 28 27 27 27 27 26 25 23 22 22 20 18 21 23 21 18 18 17 16 16 16 14 13 13 14 13
20 20 20 19 18 18 18 19 20 23 26 28 28 28 28 28 28 28 28 28 27 26 24 23 22 21 19 20 23 22 19 18 18 17 16 16 15 13 12 12 13 13
21 20 20 20 20 19 19 20 21 23 25 27 29 30 30 28 27 28 28 27 26 25 25 23 21 19 19 22 22 19 19 19 17 16 15 15 15 14 13 13 13 13
23 21 19 19 20 20 19 20 22 24 25 27 29 31 30 29 29 30 29 28 27 26 25 23 21 21 21 21 19 18 18 18 16 15 15 14 14 14 13 13 12 12
25 22 18 17 19 20 20 20 22 24 25 26 29 30 29 29 31 32 29 28 28 26 25 23 22 21 21 19 18 18 18 17 16 15 15 15 15 15 13 12 12 11
27 22 17 15 17 19 20 20 21 23 24 25 27 28 27 27 29 30 29 28 27 25 24 23 22 20 19 18 17 18 18 16 15 15 16 16 16 14 14 13 12 10
28 23 17 11 11 15 16 16 17 18 20 23 26 26 25 26 27 28 28 26 25 25 24 23 21 20 19 18 18 18 18 17 16 16 17 16 15 15 15 14 13 10
29 24 18 11 5 7 9 9 10 12 14 17 21 23 23 23 24 24 25 25 25 26 25 23 21 21 20 19 18 17 17 17 17 18 17 16 15 16 15 14 12 10
29 25 20 15 9 4 3 4 6 8 11 14 17 19 21 20 20 21 22 25 26 26 25 24 23 23 22 20 19 18 17 17 18 18 18 17 16 15 14 13 12 11
29 25 21 19 15 13 12 11 10 10 12 16 18 19 19 18 18 18 18 21 25 25 25 26 24 23 22 21 19 19 18 17 18 19 18 18 16 15 14 13 12 11
28 24 22 21 19 17 17 15 14 14 14 18 20 20 19 18 17 17 16 18 22 24 24 25 24 21 20 20 19 19 18 18 19 18 18 18 17 16 15 14 13 12
27 25 23 23 22 20 19 17 17 17 17 21 24 24 22 21 19 18 17 17 19 21 22 24 24 20 18 18 17 16 16 18 19 19 19 19 19 18 17 16 15 13
27 25 24 24 24 22 21 19 19 18 19 23 26 26 25 24 22 21 20 18 17 18 19 21 22 20 18 17 17 16 15 17 19 20 21 22 21 21 20 19 18 17
26 25 24 23 22 21 21 21 20 19 21 23 24 25 26 26 23 22 21 19 17 17 17 18 18 18 17 17 17 17 16 17 19 20 23 24 24 23 23 22 21 20
Wind_Direction
267 264 260 255 253 251 248 244 241 239 237 236 244 251 246 235 230 226 223 221 222 228 233 235 236 233 228 229 229 226 226 226 222 219 220 221 220 221 224 225 226 225
265 264 263 255 250 250 250 250 245 236 233 234 245 259 257 249 242 233 228 227 227 226 229 234 237 234 230 229 228 227 226 226 223 218 218 220 219 220 224 227 229 229
264 259 259 256 252 251 253 255 253 247 244 239 240 255 259 255 249 239 232 234 233 227 226 231 234 231 228 227 228 230 228 224 220 219 219 219 219 221 224 228 230 230
271 266 258 255 255 255 253 250 248 251 255 247 240 247 252 252 247 239 232 232 232 229 225 227 232 233 230 227 228 232 231 226 220 218 219 219 219 222 223 224 226 227
269 268 259 256 258 257 251 244 243 246 254 257 251 246 244 244 244 238 229 229 231 230 227 224 228 233 230 224 225 228 229 228 223 217 218 218 218 219 220 218 220 221
263 260 257 258 259 258 254 250 245 241 246 255 252 247 245 243 244 239 231 231 233 233 231 229 229 230 226 221 221 223 226 228 224 218 218 217 216 217 217 216 217 219
271 258 255 258 260 259 255 255 253 248 249 253 251 249 249 245 243 240 234 232 232 233 235 234 232 230 225 221 218 217 224 226 221 214 215 214 214 216 214 215 218 217
284 260 254 258 260 257 253 255 258 257 255 255 253 251 249 244 241 236 231 227 226 230 232 230 230 230 226 220 216 215 222 225 217 209 211 211 211 215 214 214 216 215
305 273 258 256 255 253 254 254 250 251 256 257 255 252 247 242 236 230 225 222 221 225 226 222 223 227 223 216 213 213 218 221 215 207 210 211 210 214 215 213 213 213
324 305 277 259 252 253 259 256 247 247 256 259 255 251 245 238 231 224 222 220 218 219 219 215 214 218 219 214 210 212 217 217 211 206 209 210 210 213 214 213 211 210
323 317 303 283 266 259 260 259 254 252 254 253 249 246 243 236 226 220 218 218 216 215 214 210 206 210 217 215 210 213 217 214 207 204 207 209 211 214 216 214 212 212
322 316 311 304 293 279 265 259 256 251 246 244 243 241 239 233 223 216 215 215 214 212 211 207 204 210 216 215 213 215 214 208 205 205 207 208 211 215 217 215 213 215
323 320 315 309 304 295 278 260 250 243 238 239 240 238 235 229 219 213 214 214 211 208 206 203 204 211 215 213 214 216 211 205 204 206 206 207 209 212 213 214 215 217
323 318 314 308 302 297 287 269 253 243 236 235 235 233 230 223 214 210 210 209 207 204 201 201 204 210 214 212 212 214 211 206 205 206 206 205 208 212 213 216 219 222
328 316 310 305 298 292 287 275 261 251 242 234 231 228 223 215 208 206 204 202 201 200 199 200 201 205 210 212 210 210 211 207 203 204 205 205 208 213 215 216 219 224
337 322 309 301 292 286 282 275 266 258 247 235 228 223 215 206 202 201 200 197 195 194 195 197 198 201 207 209 207 207 208 204 201 202 201 201 206 209 210 212 216 222
346 331 314 299 290 283 276 270 264 256 243 227 220 217 208 199 196 195 193 193 191 189 190 192 194 199 203 204 204 205 203 201 201 200 198 200 205 208 205 203 205 209
350 339 325 303 286 277 270 264 257 246 231 214 208 207 201 194 191 188 186 188 188 186 185 187 191 195 197 198 199 199 199 200 197 193 193 198 203 203 197 191 190 193
357 353 345 322 282 267 263 257 246 231 215 202 198 196 191 187 185 181 180 182 183 182 180 181 187 190 190 193 193 190 191 193 191 188 189 192 193 190 184 181 182 185
4 7 6 359 320 257 247 239 222 205 190 184 184 181 178 177 175 173 174 176 177 176 174 175 181 183 183 184 182 179 182 186 187 186 184 182 180 179 177 177 177 176
10 15 19 23 31 52 106 124 147 160 156 156 159 160 161 162 161 162 166 168 169 170 170 171 174 176 176 176 174 172 176 180 180 176 172 170 168 169 172 170 168 166
13 20 29 35 43 55 65 72 86 103 124 139 142 141 143 146 147 150 155 155 157 162 164 163 164 168 170 172 173 172 173 172 170 165 161 159 158 160 163 163 163 164
17 22 33 42 46 55 60 64 73 83 102 119 123 122 124 126 129 135 137 136 142 152 156 153 152 157 163 167 170 173 172 169 164 160 155 152 151 152 155 155 156 160
25 26 34 44 48 53 61 69 76 79 90 104 108 107 107 108 111 117 119 119 126 135 142 142 142 147 154 159 164 171 174 169 164 158 151 148 146 145 146 146 144 146
32 33 36 44 49 51 58 69 79 79 80 91 99 99 98 100 101 101 101 103 108 115 124 129 132 138 147 154 158 166 172 170 166 158 148 144 143 141 138 136 135 135
36 38 40 44 49 52 55 61 74 82 81 83 89 92 93 95 93 89 88 89 94 102 108 114 121 129 140 150 156 161 166 167 167 161 151 144 141 139 136 132 131 132
Height
791 792 793 794 795 794 793 792 791 792 795 799 801 802 801 799 798 798 798 800 802 805 809 813 814 815 816 817 818 819 819 820 821 822 825 826 828 829 831 832 833 834
789 789 790 792 792 792 790 789 789 790 792 794 796 799 799 798 797 796 798 800 800 802 805 809 811 813 815 817 818 818 818 818 820 821 823 824 826 827 829 830 831 832
786 786 786 787 788 789 789 788 787 787 788 789 791 793 795 795 795 796 798 799 799 800 803 806 808 810 813 816 817 817 817 818 819 820 822 823 824 826 827 828 830 830
786 785 784 785 785 787 787 786 785 785 784 785 787 790 792 794 795 795 797 798 798 799 800 803 805 807 810 812 813 814 816 818 818 819 820 821 822 824 825 827 828 829
786 784 783 784 784 784 785 785 785 784 783 783 785 787 790 792 793 794 795 796 797 797 798 800 802 805 807 809 810 810 814 817 818 817 818 819 821 822 824 825 826 827
784 784 783 782 782 783 784 784 785 785 783 783 784 786 788 789 791 793 794 795 795 796 798 799 801 803 805 807 807 808 812 815 815 815 816 818 819 821 822 824 825 826
783 784 783 782 780 781 783 784 785 785 784 784 784 785 786 787 789 791 792 794 795 795 796 798 800 802 803 805 805 806 810 812 811 812 815 816 818 820 821 823 824 825
783 783 783 781 779 779 782 783 785 785 784 784 785 785 785 785 787 788 790 792 793 794 794 795 798 801 802 803 804 805 808 810 809 811 813 814 816 818 820 821 823 824
783 782 782 781 779 779 781 782 782 782 782 783 784 784 784 783 784 786 787 789 791 792 793 794 796 799 801 802 802 803 806 808 808 810 812 813 815 817 818 820 822 823
782 781 781 780 779 780 779 779 778 778 778 780 782 782 782 782 782 783 785 786 788 789 791 793 794 797 800 800 800 801 804 807 807 809 811 812 814 816 817 819 820 822
780 779 778 778 779 779 778 777 776 775 775 776 778 779 780 780 781 781 781 783 785 787 789 791 792 795 797 798 798 799 802 805 805 807 809 811 813 814 816 817 819 821
778 776 775 776 776 777 776 775 774 773 772 772 773 775 776 777 778 778 779 781 783 785 787 789 790 793 795 796 797 798 801 802 804 805 808 810 812 813 815 817 818 820
776 774 773 773 773 774 773 772 772 771 770 770 771 772 773 774 775 775 776 778 780 783 785 786 788 791 792 794 796 798 799 801 803 805 806 809 811 812 814 816 817 819
775 773 772 771 771 771 770 769 769 769 768 769 769 769 770 771 772 773 774 776 778 781 783 785 787 789 791 793 796 797 798 800 802 804 805 807 810 812 813 815 816 818
774 772 770 769 769 768 768 767 765 765 766 766 765 765 767 769 771 772 773 774 776 779 781 784 786 788 790 792 795 796 797 799 801 803 804 806 808 811 812 814 815 817
773 771 768 767 766 766 765 764 763 762 763 763 763 763 764 765 768 770 771 773 775 777 779 782 784 786 789 792 793 795 797 798 800 802 803 805 807 809 811 813 815 816
771 769 767 765 764 763 762 761 761 760 761 761 761 761 763 764 765 767 769 772 774 776 778 780 783 786 789 791 793 795 797 798 799 801 803 805 807 809 810 812 814 815
770 767 765 763 762 761 760 759 759 759 759 758 759 760 763 765 766 765 767 771 773 775 776 779 783 786 788 790 792 794 796 798 799 800 802 804 806 808 810 811 813 814
771 767 764 762 761 760 759 759 758 758 758 758 758 759 762 765 765 765 767 769 771 773 776 779 783 786 788 790 792 793 795 797 798 800 802 804 806 808 810 811 812 813
773 769 766 763 761 759 759 759 758 758 758 758 759 759 760 763 764 765 767 769 771 773 775 779 782 785 788 790 792 793 795 796 798 800 802 804 806 808 810 811 812 813
775 772 769 766 764 761 760 760 760 760 759 760 761 760 761 763 764 766 768 770 772 773 774 778 782 785 788 790 791 793 794 796 798 800 802 804 806 808 810 811 812 813
779 776 773 770 768 765 764 763 764 763 762 762 762 762 762 764 766 769 771 771 772 773 775 777 781 785 787 789 791 793 794 796 798 800 802 804 806 809 810 811 812 813
783 781 778 775 772 770 769 768 768 768 767 765 763 763 765 767 770 772 773 773 774 775 776 778 781 785 788 789 791 793 795 797 798 800 802 805 807 809 810 811 812 813
787 785 783 780 777 775 774 773 772 772 772 769 767 768 770 772 774 775 777 778 778 778 779 779 781 785 788 790 792 794 795 797 799 801 803 805 807 809 810 811 812 813
791 789 787 784 782 781 779 778 777 777 776 772 771 773 774 776 778 779 780 782 782 781 781 781 782 786 789 791 793 794 796 797 799 801 803 806 807 809 810 812 812 813
795 793 791 789 787 786 784 783 782 780 779 777 777 778 777 777 780 782 783 785 786 785 785 785 785 787 790 792 793 795 796 798 799 801 803 806 808 809 810 811 813 814